Muncie, IN

5:53 PM EST on February 22, 2017 (GMT -0500)
Delaware County-Johnson

Weather History for KMIE - November, 2012

Change the Weather History Date:

Sunday, November 11, 2012

  Actual Average Record
Temperature  
Mean Temperature 61 °F 45 °F  
Max Temperature 68 °F 54 °F 75 °F (2010)
Min Temperature 53 °F 36 °F 19 °F (2008)
Degree Days  
Heating Degree Days 4 20  
Month to date heating degree days 243 200  
Since 1 July heating degree days 774 664  
Cooling Degree Days 0 0  
Month to date cooling degree days 0 0  
Year to date cooling degree days 1149 955  
Growing Degree Days 10 (Base 50)    
Moisture  
Dew Point 40 °F    
Average Humidity 48    
Maximum Humidity 59    
Minimum Humidity 36    
Precipitation  
Precipitation 0.00 in 0.11 in 2.36 in (1983)
Month to date precipitation T 1.17  
Year to date precipitation 29.65 34.96  
Sea Level Pressure  
Sea Level Pressure 30.05 in    
Wind  
Wind Speed 17 mph (South)    
Max Wind Speed 26 mph    
Max Gust Speed 38 mph    
Visibility 10 miles    
Events      
T = Trace of Precipitation, MM = Missing Value Source: NWS Daily Summary

Daily Weather History Graph

Daily Weather History Graph

Search for Another Location

Airport or City:

Trip Planner

Search our weather history database for the weather conditions in past years. The results will help you decide how hot, cold, wet, or windy it might be!

Date:

Astronomy

Nov. 11, 2012 Rise Set
Actual Time 7:23 AM EST 5:27 PM EST
Civil Twilight 6:54 AM EST 5:56 PM EST
Nautical Twilight 6:21 AM EST 6:29 PM EST
Astronomical Twilight 5:49 AM EST 7:01 PM EST
Moon 4:36 AM EST (11/11) 3:51 PM EST (11/11)
Length of Visible Light 11h 02m
Length of Day
10h 04m
Waning Crescent, 7% of the Moon is Illuminated
Nov 11
Waning Crescent
Nov 13
New
Nov 20
First Quarter
Nov 28
Full
Dec 6
Last Quarter

Hourly Weather History & Observations

Time (EST) Temp. Dew Point Humidity Pressure Visibility Wind Dir Wind Speed Gust Speed Precip Events Conditions
12:53 AM 60.1 °F 39.9 °F 47% 30.07 in 10.0 mi SSW 15.0 mph 21.9 mph N/A   Clear
1:53 AM 59.0 °F 39.0 °F 48% 30.06 in 10.0 mi SSW 13.8 mph 25.3 mph N/A   Clear
2:53 AM 57.9 °F 39.0 °F 49% 30.08 in 10.0 mi SSW 12.7 mph 23.0 mph N/A   Clear
3:53 AM 57.0 °F 39.0 °F 51% 30.09 in 10.0 mi SSW 12.7 mph 23.0 mph N/A   Clear
4:53 AM 55.0 °F 39.0 °F 55% 30.10 in 10.0 mi South 12.7 mph - N/A   Clear
5:53 AM 55.0 °F 39.0 °F 55% 30.12 in 10.0 mi SSW 11.5 mph - N/A   Clear
6:53 AM 53.1 °F 39.0 °F 59% 30.14 in 10.0 mi South 12.7 mph - N/A   Clear
7:53 AM 53.1 °F 37.9 °F 57% 30.14 in 10.0 mi South 13.8 mph - N/A   Clear
8:53 AM 55.9 °F 39.0 °F 53% 30.14 in 10.0 mi SSW 17.3 mph 25.3 mph N/A   Clear
10:53 AM 62.1 °F 41.0 °F 46% 30.14 in 10.0 mi SSW 20.7 mph 31.1 mph N/A   Mostly Cloudy
11:53 AM 64.9 °F 43.0 °F 45% 30.09 in 10.0 mi SSW 21.9 mph 31.1 mph N/A   Partly Cloudy
12:53 PM 66.9 °F 44.1 °F 44% 30.06 in 10.0 mi South 17.3 mph 29.9 mph N/A   Clear
1:53 PM 66.9 °F 44.1 °F 44% 30.04 in 10.0 mi South 24.2 mph 28.8 mph N/A   Clear
2:53 PM 64.9 °F 44.1 °F 47% 30.04 in 10.0 mi South 17.3 mph 27.6 mph N/A   Clear
3:53 PM 64.0 °F 44.1 °F 48% 30.03 in 10.0 mi South 18.4 mph 27.6 mph N/A   Clear
4:53 PM 64.0 °F 43.0 °F 46% 30.01 in 10.0 mi South 15.0 mph 25.3 mph N/A   Clear
5:53 PM 64.0 °F 41.0 °F 43% 30.00 in 10.0 mi South 17.3 mph 25.3 mph N/A   Clear
6:53 PM 63.0 °F 36.0 °F 37% 29.99 in 10.0 mi South 13.8 mph 21.9 mph N/A   Clear
7:53 PM 63.0 °F 35.1 °F 35% 29.98 in 10.0 mi South 19.6 mph 31.1 mph N/A   Clear
8:53 PM 62.1 °F 35.1 °F 37% 29.97 in 10.0 mi South 20.7 mph 31.1 mph N/A   Clear
9:53 PM 62.1 °F 37.0 °F 39% 29.96 in 10.0 mi South 20.7 mph 31.1 mph N/A   Partly Cloudy
10:53 PM 62.1 °F 41.0 °F 46% 29.96 in 10.0 mi SSW 19.6 mph 31.1 mph N/A   Mostly Cloudy
11:53 PM 61.0 °F 43.0 °F 52% 29.97 in 10.0 mi South 16.1 mph 23.0 mph N/A   Mostly Cloudy